Grafton, ND

9:12 PM CST on December 10, 2017 (GMT -0600)
Grafton Municipal

Weather History for KGAF - October, 2013

Change the Weather History Date:

Friday, October 25, 2013

  Actual Average Record
Temperature  
Mean Temperature 42 °F -  
Max Temperature 57 °F 52 °F 77 °F (1977)
Min Temperature 26 °F 31 °F 15 °F (1962)
Degree Days  
Heating Degree Days 24    
Moisture  
Dew Point 30 °F    
Average Humidity 71    
Maximum Humidity 100    
Minimum Humidity 38    
Precipitation  
Precipitation 0.00 in - - ()
Sea Level Pressure  
Sea Level Pressure 29.91 in    
Wind  
Wind Speed 14 mph (WSW)    
Max Wind Speed 28 mph    
Max Gust Speed 39 mph    
Visibility 10 miles    
Events      
Averages and records for this station are not official NWS values.
T = Trace of Precipitation, MM = Missing Value Source: NWS Daily Summary

Daily Weather History Graph

Daily Weather History Graph

Search for Another Location

Airport or City:

Trip Planner

Search our weather history database for the weather conditions in past years. The results will help you decide how hot, cold, wet, or windy it might be!

Date:

Astronomy

Oct. 25, 2013 Rise Set
Actual Time 8:04 AM CDT 6:21 PM CDT
Civil Twilight 7:32 AM CDT 6:53 PM CDT
Nautical Twilight 6:56 AM CDT 7:30 PM CDT
Astronomical Twilight 6:19 AM CDT 8:06 PM CDT
Moon 11:35 PM CDT (10/25) 1:53 PM CDT (10/25)
Length of Visible Light 11h 20m
Length of Day
10h 16m
Waning Gibbous, 62% of the Moon is Illuminated
Oct 25
Waning Gibbous
Oct 26
Last Quarter
Nov 3
New
Nov 9
First Quarter
Nov 17
Full

Hourly Weather History & Observations

Time (CDT) Temp. Windchill Dew Point Humidity Pressure Visibility Wind Dir Wind Speed Gust Speed Precip Events Conditions
12:15 AM 30.2 °F 22.6 °F 28.4 °F 93% 30.21 in 10.0 mi SW 8.1 mph - N/A   Mostly Cloudy
12:35 AM 28.4 °F 20.4 °F 28.4 °F 100% 30.20 in 10.0 mi SW 8.1 mph - N/A   Scattered Clouds
12:55 AM 28.4 °F 19.7 °F 26.6 °F 93% 30.19 in 10.0 mi SW 9.2 mph - N/A   Clear
1:15 AM 30.2 °F 21.9 °F 26.6 °F 86% 30.18 in 10.0 mi SW 9.2 mph - N/A   Clear
1:35 AM 28.4 °F 19.1 °F 26.6 °F 93% 30.18 in 10.0 mi SW 10.4 mph - N/A   Clear
1:55 AM 28.4 °F 19.7 °F 26.6 °F 93% 30.16 in 10.0 mi SSW 9.2 mph - N/A   Clear
2:15 AM 28.4 °F 19.7 °F 26.6 °F 93% 30.16 in 10.0 mi SSW 9.2 mph - N/A   Clear
2:35 AM 28.4 °F 19.7 °F 26.6 °F 93% 30.15 in 10.0 mi SSW 9.2 mph - N/A   Clear
2:55 AM 28.4 °F 19.7 °F 26.6 °F 93% 30.15 in 10.0 mi SSW 9.2 mph - N/A   Clear
3:15 AM 28.4 °F 19.7 °F 26.6 °F 93% 30.14 in 10.0 mi SSW 9.2 mph - N/A   Clear
3:35 AM 28.4 °F 20.4 °F 26.6 °F 93% 30.13 in 10.0 mi South 8.1 mph - N/A   Clear
3:55 AM 26.6 °F 18.2 °F 26.6 °F 100% 30.12 in 10.0 mi South 8.1 mph - N/A   Clear
4:15 AM 26.6 °F 17.5 °F 26.6 °F 100% 30.10 in 10.0 mi South 9.2 mph - N/A   Clear
4:35 AM 26.6 °F 16.8 °F 26.6 °F 100% 30.08 in 10.0 mi South 10.4 mph - N/A   Clear
4:55 AM 28.4 °F 19.7 °F 26.6 °F 93% 30.08 in 10.0 mi South 9.2 mph - N/A   Clear
5:15 AM 28.4 °F 19.7 °F 26.6 °F 93% 30.08 in 10.0 mi South 9.2 mph - N/A   Partly Cloudy
5:35 AM 28.4 °F 19.7 °F 26.6 °F 93% 30.08 in 10.0 mi South 9.2 mph - N/A   Partly Cloudy
5:55 AM 28.4 °F 19.1 °F 26.6 °F 93% 30.05 in 10.0 mi South 10.4 mph - N/A   Partly Cloudy
6:15 AM 26.6 °F 17.5 °F 26.6 °F 100% 30.04 in 10.0 mi South 9.2 mph - N/A   Partly Cloudy
6:35 AM 26.6 °F 18.2 °F 26.6 °F 100% 30.03 in 10.0 mi South 8.1 mph - N/A   Clear
6:55 AM 28.4 °F 18.5 °F 26.6 °F 93% 30.01 in 10.0 mi South 11.5 mph - N/A   Clear
7:15 AM 30.2 °F 21.3 °F 28.4 °F 93% 30.00 in 10.0 mi South 10.4 mph - N/A   Partly Cloudy
7:35 AM 32.0 °F 21.6 °F 28.4 °F 87% 29.96 in 10.0 mi South 15.0 mph 19.6 mph N/A   Partly Cloudy
7:55 AM 32.0 °F 20.5 °F 28.4 °F 87% 29.92 in 10.0 mi South 18.4 mph 23.0 mph N/A   Clear
8:15 AM 32.0 °F 20.1 °F 28.4 °F 87% 29.90 in 10.0 mi South 19.6 mph 25.3 mph N/A   Scattered Clouds
8:35 AM 32.0 °F 20.5 °F 28.4 °F 87% 29.89 in 10.0 mi SSW 18.4 mph 27.6 mph N/A   Partly Cloudy
8:55 AM 32.0 °F 20.1 °F 28.4 °F 87% 29.87 in 10.0 mi South 19.6 mph 24.2 mph N/A   Clear
9:15 AM 33.8 °F 21.6 °F 28.4 °F 81% 29.84 in 10.0 mi South 23.0 mph 28.8 mph N/A   Clear
9:35 AM 35.6 °F 25.2 °F 28.4 °F 75% 29.83 in 10.0 mi SSW 18.4 mph 27.6 mph N/A   Clear
9:55 AM 35.6 °F 25.2 °F 30.2 °F 81% 29.83 in 10.0 mi SSW 18.4 mph 24.2 mph N/A   Clear
10:15 AM 35.6 °F 26.2 °F 30.2 °F 81% 29.82 in 10.0 mi SSW 15.0 mph 23.0 mph N/A   Clear
10:35 AM 37.4 °F 29.8 °F 32.0 °F 81% 29.81 in 10.0 mi SSW 11.5 mph - N/A   Clear
10:55 AM 41.0 °F 32.5 °F 32.0 °F 70% 29.79 in 10.0 mi SW 17.3 mph 21.9 mph N/A   Clear
11:15 AM 41.0 °F 32.2 °F 32.0 °F 70% 29.79 in 10.0 mi WSW 18.4 mph 21.9 mph N/A   Clear
11:35 AM 44.6 °F 38.1 °F 33.8 °F 66% 29.78 in 10.0 mi WSW 13.8 mph - N/A   Clear
11:55 AM 46.4 °F 39.2 °F 35.6 °F 66% 29.77 in 10.0 mi WSW 18.4 mph 24.2 mph N/A   Clear
12:15 PM 48.2 °F - 35.6 °F 62% 29.76 in 10.0 mi West 16.1 mph 23.0 mph N/A   Clear
12:35 PM 48.2 °F - 35.6 °F 62% 29.75 in 10.0 mi West 15.0 mph 21.9 mph N/A   Clear
12:55 PM 48.2 °F - 37.4 °F 66% 29.74 in 10.0 mi West 17.3 mph 21.9 mph N/A   Clear
1:15 PM 50.0 °F - 37.4 °F 62% 29.73 in 10.0 mi West 19.6 mph 26.5 mph N/A   Clear
1:35 PM 51.8 °F - 37.4 °F 58% 29.71 in 10.0 mi West 16.1 mph 20.7 mph N/A   Clear
1:55 PM 53.6 °F - 37.4 °F 54% 29.70 in 10.0 mi West 17.3 mph 27.6 mph N/A   Clear
2:15 PM 57.2 °F - 33.8 °F 41% 29.69 in 10.0 mi WNW 26.5 mph 32.2 mph N/A   Clear
2:35 PM 55.4 °F - 33.8 °F 44% 29.69 in 10.0 mi WNW 26.5 mph 34.5 mph N/A   Clear
2:55 PM 57.2 °F - 32.0 °F 38% 29.69 in 10.0 mi NW 27.6 mph 39.1 mph N/A   Clear
3:15 PM 57.2 °F - 32.0 °F 38% 29.70 in 10.0 mi NW 25.3 mph 34.5 mph N/A   Clear
3:35 PM 57.2 °F - 32.0 °F 38% 29.70 in 10.0 mi NW 25.3 mph 32.2 mph N/A   Clear
3:55 PM 55.4 °F - 32.0 °F 41% 29.71 in 10.0 mi WNW 21.9 mph 34.5 mph N/A   Partly Cloudy
4:15 PM 55.4 °F - 32.0 °F 41% 29.72 in 10.0 mi NW 27.6 mph 33.4 mph N/A   Clear
4:35 PM 55.4 °F - 32.0 °F 41% 29.72 in 10.0 mi NW 25.3 mph 31.1 mph N/A   Partly Cloudy
4:55 PM 55.4 °F - 32.0 °F 41% 29.73 in 10.0 mi NW 25.3 mph 31.1 mph N/A   Scattered Clouds
5:15 PM 53.6 °F - 32.0 °F 44% 29.73 in 10.0 mi NW 23.0 mph 31.1 mph N/A   Mostly Cloudy
5:35 PM 53.6 °F - 32.0 °F 44% 29.74 in 10.0 mi NW 20.7 mph 32.2 mph N/A   Scattered Clouds
5:55 PM 53.6 °F - 32.0 °F 44% 29.75 in 10.0 mi NW 24.2 mph 34.5 mph N/A   Partly Cloudy
6:15 PM 50.0 °F - 30.2 °F 47% 29.76 in 10.0 mi NW 23.0 mph 32.2 mph N/A   Partly Cloudy
6:35 PM 50.0 °F - 30.2 °F 47% 29.78 in 10.0 mi NW 24.2 mph 33.4 mph N/A   Partly Cloudy
6:55 PM 48.2 °F - 28.4 °F 46% 29.80 in 10.0 mi NW 19.6 mph 29.9 mph N/A   Clear
7:15 PM 48.2 °F - 32.0 °F 54% 29.83 in 10.0 mi North 23.0 mph 38.0 mph N/A   Mostly Cloudy
7:35 PM 42.8 °F 33.5 °F 32.0 °F 66% 29.85 in 10.0 mi North 23.0 mph 33.4 mph N/A   Scattered Clouds
7:55 PM 41.0 °F 31.9 °F 32.0 °F 70% 29.87 in 10.0 mi North 19.6 mph 28.8 mph N/A   Scattered Clouds
8:15 PM 41.0 °F 31.1 °F 30.2 °F 65% 29.87 in 10.0 mi North 23.0 mph 28.8 mph N/A   Mostly Cloudy
8:35 PM 39.2 °F 29.8 °F 28.4 °F 65% 29.88 in 10.0 mi NNW 18.4 mph 23.0 mph N/A   Mostly Cloudy
8:55 PM 39.2 °F 32.0 °F 28.4 °F 65% 29.89 in 10.0 mi NNW 11.5 mph - N/A   Mostly Cloudy
9:15 PM 39.2 °F 31.6 °F 28.4 °F 65% 29.90 in 10.0 mi NNW 12.7 mph 18.4 mph N/A   Overcast
9:35 PM 41.0 °F 33.1 °F 28.4 °F 61% 29.91 in 10.0 mi NNW 15.0 mph 21.9 mph N/A   Overcast
9:55 PM 41.0 °F 32.5 °F 28.4 °F 61% 29.92 in 10.0 mi NNW 17.3 mph 27.6 mph N/A   Overcast
10:15 PM 39.2 °F 30.8 °F 28.4 °F 65% 29.93 in 10.0 mi NNW 15.0 mph - N/A   Overcast
10:35 PM 39.2 °F 32.0 °F 28.4 °F 65% 29.94 in 10.0 mi NNW 11.5 mph 18.4 mph N/A   Overcast
10:55 PM 39.2 °F 32.5 °F 28.4 °F 65% 29.94 in 10.0 mi NW 10.4 mph - N/A   Overcast
11:15 PM 39.2 °F 31.6 °F 28.4 °F 65% 29.94 in 10.0 mi NW 12.7 mph - N/A   Overcast
11:35 PM 39.2 °F 30.8 °F 26.6 °F 61% 29.95 in 10.0 mi NW 15.0 mph 19.6 mph N/A   Overcast
11:55 PM 39.2 °F 30.2 °F 26.6 °F 61% 29.95 in 10.0 mi NW 17.3 mph 25.3 mph N/A   Mostly Cloudy